| time (UTC) | temp C | wind direction | speed KPH | gust KPH | rain 1hr cm | rain 24hr cm | rain mn cm | humidity % | barometer mb |
| 20260505031527 | 4 | 90 | 0.0 | 0.0 | 0.00 | 0.20 | 0.18 | 52 | 1007.3 |
| 20260505030041 | 5 | 90 | 0.0 | 0.0 | 0.00 | 0.20 | 0.18 | 51 | 1007.3 |
| 20260505024526 | 5 | 90 | 0.0 | 0.0 | 0.00 | 0.20 | 0.18 | 48 | 1006.8 |
| 20260505023030 | 6 | 90 | 0.0 | 0.0 | 0.00 | 0.20 | 0.18 | 48 | 1006.9 |
| 20260505021526 | 6 | 90 | 0.0 | 0.0 | 0.00 | 0.20 | 0.18 | 45 | 1006.7 |
| 20260505020025 | 7 | 90 | 0.0 | 0.0 | 0.00 | 0.20 | 0.18 | 39 | 1006.5 |
| 20260505014527 | 7 | 90 | 0.0 | 1.6 | 0.00 | 0.20 | 0.18 | 36 | 1006.7 |
| 20260505013023 | 8 | 245 | 0.0 | 0.0 | 0.00 | 0.20 | 0.18 | 36 | 1006.7 |
| 20260505011524 | 8 | 234 | 0.0 | 3.2 | 0.00 | 0.20 | 0.18 | 36 | 1006.5 |
| 20260505010023 | 8 | 262 | 0.0 | 3.2 | 0.00 | 0.20 | 0.18 | 33 | 1006.5 |
| 20260505004540 | 8 | 232 | 0.0 | 9.7 | 0.00 | 0.20 | 0.18 | 32 | 1006.5 |
| 20260505003021 | 9 | 94 | 1.6 | 8.0 | 0.00 | 0.20 | 0.18 | 33 | 1006.6 |
| 20260505001520 | 9 | 90 | 0.0 | 22.5 | 0.00 | 0.20 | 0.18 | 34 | 1006.8 |
| 20260505000019 | 10 | 118 | 0.0 | 11.3 | 0.00 | 0.20 | 0.18 | 38 | 1006.6 |
| 20260504234520 | 10 | 212 | 1.6 | 17.7 | 0.00 | 0.20 | 0.18 | 38 | 1006.5 |
| 20260504233021 | 10 | 96 | 3.2 | 17.7 | 0.00 | 0.20 | 0.18 | 36 | 1006.6 |
| 20260504231516 | 10 | 143 | 4.8 | 17.7 | 0.00 | 0.20 | 0.18 | 37 | 1006.5 |
| 20260504230017 | 10 | 102 | 8.0 | 27.4 | 0.00 | 0.20 | 0.18 | 35 | 1006.6 |
| 20260504224516 | 11 | 76 | 4.8 | 14.5 | 0.00 | 0.20 | 0.18 | 34 | 1006.4 |
| 20260504223014 | 10 | 240 | 0.0 | 12.9 | 0.00 | 0.20 | 0.18 | 37 | 1006.3 |
| 20260504221513 | 10 | 101 | 1.6 | 12.9 | 0.00 | 0.20 | 0.18 | 39 | 1006.4 |
| 20260504220011 | 10 | 58 | 6.4 | 17.7 | 0.00 | 0.20 | 0.18 | 40 | 1006.4 |
| 20260504214510 | 10 | 259 | 3.2 | 14.5 | 0.00 | 0.20 | 0.18 | 40 | 1006.5 |
| 20260504213021 | 10 | 224 | 3.2 | 14.5 | 0.00 | 0.20 | 0.18 | 39 | 1006.7 |
| 20260504211507 | 10 | 167 | 3.2 | 19.3 | 0.00 | 0.20 | 0.18 | 41 | 1006.9 |
| 20260504210106 | 10 | 66 | 4.8 | 14.5 | 0.00 | 0.20 | 0.18 | 40 | 1007.0 |
| 20260504204502 | 10 | 252 | 1.6 | 11.3 | 0.00 | 0.20 | 0.18 | 43 | 1007.0 |
| 20260504203002 | 10 | 228 | 4.8 | 17.7 | 0.00 | 0.20 | 0.18 | 43 | 1007.3 |
| 20260504201611 | 10 | 216 | 3.2 | 14.5 | 0.00 | 0.20 | 0.18 | 44 | 1007.2 |
| 20260504201501 | 10 | 218 | 3.2 | 14.5 | 0.00 | 0.20 | 0.18 | 45 | 1007.2 |
| 20260504200106 | 10 | 60 | 3.2 | 12.9 | 0.00 | 0.20 | 0.18 | 45 | 1007.2 |
| 20260504194605 | 10 | 235 | 1.6 | 11.3 | 0.00 | 0.20 | 0.18 | 47 | 1007.3 |
| 20260504193057 | 10 | 143 | 1.6 | 14.5 | 0.00 | 0.20 | 0.18 | 46 | 1007.1 |
| 20260504191618 | 9 | 236 | 3.2 | 12.9 | 0.00 | 0.20 | 0.18 | 48 | 1007.5 |
| 20260504190059 | 10 | 153 | 3.2 | 12.9 | 0.00 | 0.20 | 0.18 | 51 | 1007.3 |
| 20260504184602 | 9 | 122 | 1.6 | 14.5 | 0.00 | 0.20 | 0.18 | 51 | 1007.4 |
| 20260504183053 | 9 | 140 | 1.6 | 14.5 | 0.00 | 0.20 | 0.18 | 52 | 1007.4 |
| 20260504181551 | 9 | 207 | 1.6 | 12.9 | 0.00 | 0.20 | 0.18 | 55 | 1007.8 |
| 20260504180051 | 9 | 124 | 1.6 | 8.0 | 0.00 | 0.20 | 0.18 | 56 | 1007.9 |
| 20260504174549 | 9 | 167 | 3.2 | 9.7 | 0.00 | 0.20 | 0.18 | 55 | 1007.6 |
| 20260504173048 | 10 | 90 | 1.6 | 8.0 | 0.00 | 0.20 | 0.18 | 56 | 1007.6 |
| 20260504171545 | 9 | 113 | 1.6 | 8.0 | 0.00 | 0.20 | 0.18 | 59 | 1008.0 |
| 20260504081544 | 2 | 269 | 0.0 | 0.0 | 0.05 | 0.13 | 0.10 | 92 | 1011.8 |
| 20260504050020 | 5 | 25 | 0.0 | 3.2 | 0.00 | 0.00 | 0.00 | 75 | 1014.2 |
| 20260504044518 | 5 | 61 | 0.0 | 0.0 | 0.00 | 0.00 | 0.00 | 74 | 1014.2 |
| 20260504043018 | 5 | 61 | 0.0 | 0.0 | 0.00 | 0.00 | 0.00 | 71 | 1014.3 |
| 20260504041517 | 5 | 194 | 0.0 | 11.3 | 0.00 | 0.00 | 0.00 | 67 | 1014.4 |
| 20260504040017 | 6 | 269 | 6.4 | 14.5 | 0.00 | 0.00 | 0.00 | 60 | 1014.1 |
| 20260504034518 | 6 | 22 | 0.0 | 1.6 | 0.00 | 0.00 | 0.00 | 48 | 1012.8 |
| 20260504033015 | 5 | 264 | 0.0 | 1.6 | 0.00 | 0.00 | 0.00 | 51 | 1012.5 |